Deer Park, WA
on Monday, December 10, 2012

Monday
Previous Day Next Day
Daily Summary
 ActualAverageRecord
Temperature
Mean Temperature °F / °C 26°F / -3°C  
Max Temperature 30°F / -1°C 32°F / 0°C 46°F / 7°C (2004)
Min Temperature 23°F / -5°C 19°F / -7°C 3°F / -16°C (2013)
Degree Days
Heating Degree Days 38 39  
Month to date heating degree days 315 380  
Since 1 July heating degree days 2052 2383  
Cooling Degree Days 0 0  
Month to date cooling degree days 0 0  
Year to date cooling degree days 232 187  
Moisture
Dew Point 27°F / -3°C   
Average Humidity 96    
Maximum Humidity 100    
Minimum Humidity 92    
Precipitation
Precipitation 0.00 in / 0.00 cm 0.09 in / 2.29 cm 0.23 in / 0.58 cm (2010)
Month to date precipitation 1.47 0.89  
Year to date precipitation 25.58 20.28  
Wind
Wind Speed 3 mph / 5 km/h   
Max Wind Speed 12 mph / 19 km/h   
Max Gust Speed 13 mph / 21 km/h   
Visibility 8 miles / 12 kilometers   
Events     

Key: T is trace of precipitation, MM is missing value
Source: NWS Daily Summary
Time(PST)TemperatureDew PointHumidity Pressure Visibility Wind DirectionWind SpeedGust SpeedPrecipitationEvents Conditions
12:38 AM 28.4°F / -2.0°C 26.6°F / -3.0°C 93% 30.16 in / 1021.2 hPa 5.0 miles / 8.0 kilometers Calm Calm - N/A   Overcast
12:53 AM 27.0°F / -2.8°C 27.0°F / -2.8°C 100% 30.25 in / 1024.3 hPa 5.0 miles / 8.0 kilometers Calm Calm - N/A   Overcast
1:06 AM 28.4°F / -2.0°C 26.6°F / -3.0°C 93% 30.17 in / 1021.6 hPa 5.0 miles / 8.0 kilometers Calm Calm - N/A   Overcast
1:53 AM 27.0°F / -2.8°C 27.0°F / -2.8°C 100% 30.25 in / 1024.3 hPa 5.0 miles / 8.0 kilometers SW 3.5 mph / 5.6 km/h - N/A   Overcast
2:03 AM 26.6°F / -3.0°C 26.6°F / -3.0°C 100% 30.17 in / 1021.6 hPa 5.0 miles / 8.0 kilometers WSW 4.6 mph / 7.4 km/h - N/A   Overcast
2:53 AM 27.0°F / -2.8°C 26.1°F / -3.3°C 96% 30.26 in / 1024.5 hPa 6.0 miles / 9.7 kilometers WSW 3.5 mph / 5.6 km/h - N/A   Overcast
4:29 AM 26.6°F / -3.0°C 24.8°F / -4.0°C 93% 30.18 in / 1021.9 hPa 10.0 miles / 16.1 kilometers Calm Calm - N/A   Overcast
4:53 AM 25.0°F / -3.9°C 25.0°F / -3.9°C 100% 30.26 in / 1024.7 hPa 7.0 miles / 11.3 kilometers South 4.6 mph / 7.4 km/h - N/A   Overcast
5:53 AM 27.0°F / -2.8°C 26.1°F / -3.3°C 96% 30.27 in / 1024.8 hPa 8.0 miles / 12.9 kilometers SSW 5.8 mph / 9.3 km/h - N/A   Overcast
6:53 AM 28.0°F / -2.2°C 27.0°F / -2.8°C 96% 30.29 in / 1025.5 hPa 10.0 miles / 16.1 kilometers SSW 6.9 mph / 11.1 km/h - N/A   Overcast
7:32 AM 28.4°F / -2.0°C 26.6°F / -3.0°C 93% 30.21 in / 1022.9 hPa 10.0 miles / 16.1 kilometers South 8.1 mph / 13.0 km/h - N/A   Overcast
7:53 AM 28.0°F / -2.2°C 26.1°F / -3.3°C 92% 30.30 in / 1025.8 hPa 10.0 miles / 16.1 kilometers SSW 6.9 mph / 11.1 km/h - N/A   Overcast
8:53 AM 28.0°F / -2.2°C 27.0°F / -2.8°C 96% 30.29 in / 1025.5 hPa 10.0 miles / 16.1 kilometers South 6.9 mph / 11.1 km/h - N/A   Overcast
9:53 AM 28.0°F / -2.2°C 27.0°F / -2.8°C 96% 30.29 in / 1025.7 hPa 10.0 miles / 16.1 kilometers SSW 4.6 mph / 7.4 km/h - N/A   Overcast
10:15 AM 28.4°F / -2.0°C 26.6°F / -3.0°C 93% 30.22 in / 1023.2 hPa 10.0 miles / 16.1 kilometers SW 6.9 mph / 11.1 km/h - N/A   Overcast
10:53 AM 28.9°F / -1.7°C 27.0°F / -2.8°C 92% 30.28 in / 1025.4 hPa 10.0 miles / 16.1 kilometers SSW 5.8 mph / 9.3 km/h - N/A   Overcast
11:19 AM 28.4°F / -2.0°C 26.6°F / -3.0°C 93% 30.20 in / 1022.6 hPa 8.0 miles / 12.9 kilometers SSW 6.9 mph / 11.1 km/h - N/A   Overcast
11:30 AM 28.4°F / -2.0°C 26.6°F / -3.0°C 93% 30.20 in / 1022.6 hPa 9.0 miles / 14.5 kilometers South 4.6 mph / 7.4 km/h - N/A   Overcast
11:53 AM 28.9°F / -1.7°C 27.0°F / -2.8°C 92% 30.28 in / 1025.2 hPa 10.0 miles / 16.1 kilometers South 5.8 mph / 9.3 km/h - N/A   Overcast
12:53 PM 28.9°F / -1.7°C 26.1°F / -3.3°C 89% 30.26 in / 1024.5 hPa 7.0 miles / 11.3 kilometers SSW 6.9 mph / 11.1 km/h - N/A   Overcast
1:53 PM 28.9°F / -1.7°C 27.0°F / -2.8°C 92% 30.24 in / 1024.0 hPa 10.0 miles / 16.1 kilometers South 8.1 mph / 13.0 km/h - N/A   Overcast
2:32 PM 28.4°F / -2.0°C 26.6°F / -3.0°C 93% 30.16 in / 1021.2 hPa 10.0 miles / 16.1 kilometers South 9.2 mph / 14.8 km/h - N/A   Overcast
2:53 PM 28.9°F / -1.7°C 27.0°F / -2.8°C 92% 30.23 in / 1023.7 hPa 10.0 miles / 16.1 kilometers SSW 4.6 mph / 7.4 km/h - N/A   Overcast
3:53 PM 30.0°F / -1.1°C 28.0°F / -2.2°C 92% 30.23 in / 1023.6 hPa 10.0 miles / 16.1 kilometers SSW 4.6 mph / 7.4 km/h - N/A   Overcast
4:53 PM 30.0°F / -1.1°C 28.0°F / -2.2°C 92% 30.22 in / 1023.1 hPa 10.0 miles / 16.1 kilometers Calm Calm - N/A   Overcast
5:53 PM 28.9°F / -1.7°C 28.0°F / -2.2°C 96% 30.19 in / 1022.4 hPa 10.0 miles / 16.1 kilometers Calm Calm - N/A   Overcast
6:53 PM 28.9°F / -1.7°C 28.0°F / -2.2°C 96% 30.19 in / 1022.2 hPa 10.0 miles / 16.1 kilometers Calm Calm - N/A   Overcast
7:53 PM 28.9°F / -1.7°C 28.0°F / -2.2°C 96% 30.17 in / 1021.5 hPa 10.0 miles / 16.1 kilometers Calm Calm - N/A   Overcast
8:53 PM 30.0°F / -1.1°C 28.0°F / -2.2°C 92% 30.15 in / 1020.8 hPa 10.0 miles / 16.1 kilometers Calm Calm - N/A   Overcast
9:53 PM 30.0°F / -1.1°C 28.0°F / -2.2°C 92% 30.12 in / 1020.0 hPa 10.0 miles / 16.1 kilometers Calm Calm - N/A   Overcast
10:46 PM 30.2°F / -1.0°C 28.4°F / -2.0°C 93% 30.03 in / 1016.8 hPa 4.0 miles / 6.4 kilometers NNE 3.5 mph / 5.6 km/h - N/A   Overcast
10:53 PM 30.0°F / -1.1°C 28.0°F / -2.2°C 92% 30.10 in / 1019.2 hPa 3.0 miles / 4.8 kilometers Calm Calm - N/A   Overcast
11:02 PM 30.2°F / -1.0°C 28.4°F / -2.0°C 93% 30.04 in / 1017.2 hPa 2.5 miles / 4.0 kilometers Calm Calm - N/A   Overcast
11:33 PM 30.2°F / -1.0°C 28.4°F / -2.0°C 93% 30.01 in / 1016.1 hPa 3.0 miles / 4.8 kilometers Calm Calm - N/A   Overcast
11:41 PM 30.2°F / -1.0°C 28.4°F / -2.0°C 93% 30.01 in / 1016.1 hPa 2.5 miles / 4.0 kilometers Calm Calm - N/A   Overcast
11:53 PM 30.0°F / -1.1°C 28.9°F / -1.7°C 96% 30.06 in / 1017.8 hPa 1.5 miles / 2.4 kilometers Calm Calm - N/A   Overcast
Moon Phase
Dec. 10 Dec. 13 Dec. 20 Dec. 28 Jan. 04
Sunrise:07:28 AM (PST) Moon Rise:04:09 AM (PST)12/10
Sunset:03:56 PM (PST) Moon Set:01:56 PM (PST)12/10

Copyright © 2014 The Weather Underground, Inc.